Hourly Data Report for October 01, 2014

All times are specified in Local Standard Time (LST). Add 1 hour to adjust for Daylight Saving Time where and when it is observed.

WINNIPEG A CS
MANITOBA

49°55'00.000" N
97°14'58.000" W
238.70 m
502S001
71849
XWG

Download Data

Hourly Data (October 2014)
Hourly Data Report for October 1, 2014
Temp Definition
°C
Dew Point Temp Definition
°C
Rel Hum Definition
%
Wind Dir Definition
10's deg

Wind Spd Definition
km/h
Visibility Definition
km
Stn Press Definition
kPa
Hmdx Definition


Wind Chill Definition


Weather Definition


TIME
00:00 12.0 9.7 86 13 33   97.29     LegendNANA
01:00 12.5 9.9 84 13 31   97.19     LegendNANA
02:00 13.4 9.5 77 14 34   97.07     LegendNANA
03:00 13.4 9.8 79 13 33   96.95     LegendNANA
04:00 13.3 10.5 83 14 34   96.84     LegendNANA
05:00 14.3 12.2 87 14 39   96.74     LegendNANA
06:00 14.2 12.6 90 16 34   96.73     LegendNANA
07:00 13.8 12.3 91 19 33   96.79     LegendNANA
08:00 13.7 10.8 82 19 37   96.83     LegendNANA
09:00 14.1 10.6 79 21 38   96.90     LegendNANA
10:00 14.4 10.6 78 21 31   96.97     LegendNANA
11:00 14.6 10.7 78 21 25   97.00     LegendNANA
12:00 14.6 10.8 78 22 22   97.04     LegendNANA
13:00 15.0 10.7 75 23 19   97.02     LegendNANA
14:00 15.0 10.6 75 22 23   97.03     LegendNANA
15:00 15.4 10.5 73 23 19   97.05     LegendNANA
16:00 16.0 10.9 72 23 16   97.08     LegendNANA
17:00 15.8 10.8 72 25 21   97.15     LegendNANA
18:00 15.1 10.2 72 27 22   97.25     LegendNANA
19:00 14.7 10.0 73 26 21   97.36     LegendNANA
20:00 13.9 9.9 77 26 17   97.45     LegendNANA
21:00 13.7 9.4 75 27 25   97.54     LegendNANA
22:00 12.7 9.1 79 28 19   97.60     LegendNANA
23:00 12.7 8.6 76 28 20   97.63     LegendNANA

Notes on Data Quality.

Legend

  • E = Estimated
  • M = Missing
  • NA = Not Available
  • ‡ = Partner data that is not subject to review by the National Climate Archives
Date modified: